Flag for Sweden Weather past 2 weeks in Gothenburg, Sweden

Now
68 °F

Passing clouds.


Feels Like: 68 °F
Forecast: 58 / 64 °F
Wind: 5 mph from North

Location: Gothenburg / Save

Current Time: Jul 6, 2015 at 12:00:28 AM

Latest Report: Jul 5, 2015 at 11:20 PM


Visibility: N/A

Pressure: 29.86 "Hg

Humidity: 83%

Dew point: 63 °F

Location of GothenburgLocation

Historic Weather in Gothenburg — Graph

°F

Gothenburg temperature yesterday

Maximum temperature yesterday: 81 °F (at 2:50 PM)
Minimum temperature yesterday: 59 °F (at 4:20 AM)
Average temperature yesterday: 70 °F

Past Weeks' High & Low Weather Summary

 TemperatureHumidityPressure
High81 °F (Jul 5, 2:50 PM)100% (Jun 23, 1:50 AM)30.36 "Hg (Jun 23, 1:50 AM)
Low45 °F (Jun 27, 4:20 AM)39% (Jul 2, 10:50 AM)29.62 "Hg (Jun 22, 7:20 PM)
Average60 °F76%30.00 "Hg
* Reported Jun 20 10:20 PM — Jul 5 10:50 PM, Gothenburg, Weather by CustomWeather, © 2015

Note: Actual official high and low records may vary slightly from our data, if they occured in-between our weather recording intervals... More about our weather records

Advertising

Gothenburg weather history for previous 24 hours

 ConditionsComfort  
Time TempWeatherWind HumidityBarometerVisibility
10:50 PM
Sun, Jul 5
68 °FDrizzle. Partly sunny.3 mph88%29.86 "HgN/A
10:20 PM70 °FScattered clouds.No wind78%29.86 "HgN/A
9:50 PM70 °FSunny.No wind73%29.86 "Hg10 mi
9:20 PM70 °FSunny.No wind73%29.86 "Hg10 mi
8:50 PM72 °FSunny.2 mph69%29.89 "Hg10 mi
8:20 PM73 °FSunny.No wind65%29.89 "Hg10 mi
7:20 PM73 °FSunny.1 mph61%29.92 "Hg10 mi
6:50 PM75 °FSunny.No wind61%29.92 "Hg10 mi
6:20 PM75 °FSunny.5 mph57%29.95 "Hg10 mi
5:20 PM77 °FPassing clouds.6 mph57%29.98 "HgN/A
4:50 PM77 °FSunny.7 mph61%29.98 "Hg10 mi
4:20 PM77 °FSunny.6 mph61%29.98 "Hg10 mi
3:50 PM77 °FSunny.8 mph57%30.01 "Hg10 mi
3:20 PM79 °FPassing clouds.7 mph51%30.01 "HgN/A
2:50 PM81 °FPassing clouds.6 mph51%30.01 "HgN/A
2:20 PM77 °FSunny.9 mph54%30.01 "Hg10 mi
1:50 PM79 °FSunny.7 mph54%30.01 "Hg10 mi
1:20 PM79 °FPassing clouds.3 mph54%30.04 "HgN/A
12:50 PM79 °FPassing clouds.3 mph58%30.04 "HgN/A
12:20 PM77 °FPassing clouds.5 mph54%30.04 "HgN/A
11:50 AM77 °FPassing clouds.3 mph57%30.04 "HgN/A
11:20 AM75 °FSunny.5 mph57%30.07 "Hg10 mi
10:50 AM75 °FSunny.6 mph57%30.07 "Hg10 mi
10:20 AM75 °FPassing clouds.6 mph57%30.07 "HgN/A
9:50 AM75 °FPassing clouds.6 mph61%30.07 "HgN/A
9:20 AM73 °FPassing clouds.3 mph61%30.07 "HgN/A
8:50 AM73 °FPassing clouds.3 mph65%30.07 "HgN/A
8:20 AM72 °FSunny.5 mph69%30.07 "Hg10 mi
7:50 AM68 °FSunny.1 mph83%30.07 "Hg10 mi
7:20 AM66 °FSunny.No wind83%30.07 "Hg10 mi
6:50 AM64 °FSunny.No wind88%30.07 "Hg10 mi
6:20 AM63 °FMild.No wind94%30.07 "HgN/A
5:50 AM59 °FCool.3 mph94%30.07 "HgN/A
5:20 AM59 °FCool.2 mph100%30.07 "HgN/A
4:50 AM59 °FPassing clouds.2 mph94%30.07 "HgN/A
4:20 AM59 °FFog.1 mph100%30.07 "Hg4 mi
3:50 AM61 °FOvercast.No wind94%30.07 "HgN/A
3:20 AM61 °FOvercast.No wind94%30.07 "Hg3 mi
2:50 AM61 °FFog.1 mph94%30.07 "Hg1 mi
2:20 AM61 °FCool.2 mph94%30.09 "Hg1 mi
1:50 AM63 °FFog.1 mph94%30.07 "Hg4 mi
1:20 AM63 °FPartly cloudy.1 mph94%30.07 "Hg5 mi
12:50 AM64 °FPassing clouds.No wind94%30.07 "HgN/A
12:20 AM64 °FPassing clouds.5 mph94%30.07 "HgN/A
Weather by CustomWeather, © 2015

See weather overviewHow to use our weather pages